Weather in Ivanivka

Ukraine / Luhansk Region     48°30′05″N   39°45′53″E
temp.,
°C
wind,
m/s
gust,
m/s
humid.,
%
clouds,
%
prec.,
mm/h
press.,
hPa
HPBL,
m
8 march, mon
mon823:00−1wsw714659 0.0 1015914
02:00−1wsw7156610 0.0 1014734
05:00−2wsw815741 0.0 1013537
08:000wsw9147251 0.0 1012731
11:00+4wsw101558100 0.0 10121720
14:00+5wsw101455100 0.0 10111888
17:00+2wsw51270100 0.1 1010396
20:00+1sw61188100 0.1 1011382
9 march, tue
tue923:000w61097100 0.3 1011618
02:00−1w4790100 0.4 1011246
05:00−1w598499 0.0 1011578
08:00−1wnw696865 0.1 1013818
11:00+1wnw686449 0.2 10141269
14:00+2wnw795368 0.4 10151802
17:00−1nw5968100 0.2 1016823
20:00−3nw487496 0.3 1019740
10 march, wed
wed1023:00−4nw467241 0.0 1020775
02:00−5nnw577752 0.1 1022788
05:00−6nnw576299 0.1 1023937
08:00−6nnw575152 0.1 10251018
11:00−3nnw56430 0.0 10261234
14:00−2nnw56390 0.0 10261416
17:00−3n45453 0.0 10251001
20:00−5nne45481 0.0 1027640
11 march, thu
thu1123:00−6nne46460 0.0 1027649
02:00−7nne45480 0.0 1028661
05:00−8ne45510 0.0 1029639
08:00−9ene56560 0.0 1030722
11:00−7ne562914 0.0 10311009
14:00−6ne562817 0.0 10301161
17:00−7ene563228 0.0 10301040
20:00−8ene563714 0.0 1031952
12 march, fri
fri1223:00−10ene564311 0.0 1032769
02:00−10ene464612 0.0 1032660
05:00−11e46480 0.0 1033570
08:00−10e45410 0.0 1034592
11:00−7ese45260 0.0 1034870
14:00−4ese45230 0.0 10331076
17:00−5ese45274 0.0 1032994
20:00−5se47325 0.0 1033862